This is the latest recevied weather packets stored in our database for station/object KD2ZLA. If no packets are shown the sender has not sent any weather packets the latest 10 day(s).
| Time | Temp. | Humidity | Pressure | Rain* | Wind** | Luminosity | Snow |
|---|---|---|---|---|---|---|---|
| 1777811391 | 5.56° C | 71% | 1011.7 hPa | 0 mm | - | 205 W/m² | - |
| 1777811089 | 5.56° C | 71% | 1011.6 hPa | 0 mm | - | 197 W/m² | - |
| 1777810786 | 5.56° C | 72% | 1011.7 hPa | 0 mm | - | 186 W/m² | - |
| 1777810483 | 5.56° C | 73% | 1011.8 hPa | 0 mm | - | 178 W/m² | - |
| 1777810178 | 5.56° C | 76% | 1011.7 hPa | 0 mm | - | 163 W/m² | - |
| 1777809876 | 5° C | 76% | 1011.5 hPa | 0 mm | - | 151 W/m² | - |
| 1777809574 | 5° C | 76% | 1011.7 hPa | 0 mm | - | 145 W/m² | - |
| 1777809271 | 5° C | 78% | 1011.6 hPa | 0 mm | - | 142 W/m² | - |
| 1777808969 | 5° C | 78% | 1011.6 hPa | 0 mm | - | 135 W/m² | - |
| 1777808666 | 5° C | 79% | 1011.5 hPa | 0 mm | - | 129 W/m² | - |
| 1777808362 | 4.44° C | 79% | 1011.5 hPa | 0 mm | - | 122 W/m² | - |
| 1777808061 | 4.44° C | 80% | 1011.5 hPa | 0 mm | - | 113 W/m² | - |
| 1777807758 | 4.44° C | 82% | 1011.5 hPa | 0 mm | - | 106 W/m² | - |
| 1777807457 | 4.44° C | 82% | 1011.4 hPa | 0 mm | - | 96 W/m² | - |
| 1777807157 | 3.89° C | 83% | 1011.5 hPa | 0 mm | - | 86 W/m² | - |
| 1777806855 | 3.89° C | 83% | 1011.5 hPa | 0 mm | - | 75 W/m² | - |
| 1777806551 | 3.89° C | 84% | 1011.3 hPa | 0 mm | - | 67 W/m² | - |
| 1777806247 | 3.89° C | 85% | 1011.5 hPa | 0 mm | - | 59 W/m² | - |
| 1777805944 | 3.89° C | 85% | 1011.2 hPa | 0 mm | - | 50 W/m² | - |
| 1777805640 | 3.89° C | 86% | 1011.4 hPa | 0 mm | - | 42 W/m² | - |
| 1777805338 | 3.89° C | 86% | 1011.3 hPa | 0 mm | - | 39 W/m² | - |
| 1777805036 | 3.33° C | 87% | 1011.3 hPa | 0 mm | - | 34 W/m² | - |
| 1777804733 | 3.33° C | 87% | 1011.3 hPa | 0 mm | - | 29 W/m² | - |
| 1777804431 | 3.33° C | 87% | 1011.2 hPa | 0 mm | - | 23 W/m² | - |
| 1777804128 | 3.33° C | 87% | 1011.2 hPa | 0 mm | - | 19 W/m² | - |
* Rain latest hour (hover to see other rain measurements)
** Current wind speed in m/s (hover to see current wind gust speed)